Weather Roundup
Issued by NWS Chicago, IL

Home | Current Version | Previous Version | Text Only | Print | Product List | Glossary On
Versions: 1 2 3 4 5 6 7 8 9 10 11 12 13 14 15 16 17 18 19 20 21 22 23 24 25 26 27 28 29 30 31 32 33 34 35 36 37 38 39 40 41 42 43 44 45 46 47 48 49 50
000
NZUS59 KLOT 030912
HRRLOT

CHICAGO AREA WEATHER ROUNDUP
NATIONAL WEATHER SERVICE CHICAGO/ROMEOVILLE IL
300 AM CST SAT DEC 03 2016

NOTE: "FAIR" INDICATES FEW OR NO CLOUDS BELOW 12,000 FEET WITH NO
SIGNIFICANT WEATHER AND/OR OBSTRUCTIONS TO VISIBILITY.

* THESE STATIONS ARE NOT UNDER NWS QUALITY CONTROL. THEY ALSO MAY NOT
  REPORT WEATHER SUCH AS PRECIPITATION OR FOG.

ILZ005-006-012>014-019>023-031000-
NORTHEAST ILLINOIS

CITY           SKY/WX    TMP DP  RH WIND       PRES   REMARKS
OHARE          CLOUDY    33  23  66 W7        30.33R WCI  27
MIDWAY         CLOUDY    34  21  59 W5        30.33S WCI  30
AURORA         NOT AVBL
LANSING*       CLOUDY    31  25  77 W6        30.34S WCI  25
JOLIET*        CLOUDY    35  25  68 W3        30.35S
WAUKEGAN       CLOUDY    32  23  69 W5        30.31  WCI  27
DUPAGE AIRPORT NOT AVBL
WHEELING       NOT AVBL
KANKAKEE*      CLOUDY    34  28  79 W5        30.35S WCI  30
MORRIS*        CLOUDY    33  29  83 CALM      30.34S
LEWIS AIRPORT* CLOUDY    32  27  80 NW6       30.34S WCI  27
NORTHERLY ISL    N/A     34  22  61 W7          N/A  WCI  28
$$

WIZ051-052-058>065-066-070>072-031000-
SOUTHEAST WISCONSIN

CITY           SKY/WX    TMP DP  RH WIND       PRES   REMARKS
MILWAUKEE      NOT AVBL
KENOSHA*       CLOUDY    32  22  66 NW7       30.31S WCI  26
RACINE*        CLOUDY    32  23  69 NW3       30.32S
BURLINGTON     CLOUDY    31  23  72 CALM      30.31S
WAUKESHA       CLOUDY    30  21  69 NW8       30.31S WCI  23
WEST BEND      CLOUDY    30  25  80 W5        30.30R WCI  25
$$

INZ001>003-010>013-019-020-031000-
NORTHWEST INDIANA

CITY           SKY/WX    TMP DP  RH WIND       PRES   REMARKS
GARY*          CLOUDY    34  24  65 W6        30.34S WCI  29
MICHIGAN CITY* NOT AVBL
RENSSELAER*    NOT AVBL
$$

LMZ740>746-031000-
SOUTHERN LAKE MICHIGAN

STATION/POSITION TIME  SKY/WX   TEMP WIND        PRES    VSBY
                                AIR  DIR/SP/G
                 (UTC)          (F)  (DEG/KT/KT) (MB)    (MI)
HARRISON CRIB    0840            36  270/  6/  8   N/A
BURNHAM HARBOR   0900            34  250/  4/ 10   N/A
CALUMET HARBOR   0848            33  220/  5/  6 1026.4R
BURNS HARBOR     0840            36  230/ 10/ 15 1027.1R
MICHIGAN CITY    0840            36  250/ 13/ 16   N/A
$$

ABBREVIATIONS USED IN REMARKS
   TC - TEMPERATURE IN CELSIUS
  WCI - WIND CHILL INDEX
   HX - HEAT INDEX
  VSB - VISIBILITY
$$




USA.gov is the U.S. government's official web portal to all federal, state and local government web resources and services.